Location: Ammerl�gen
(47.2167°N, 9.6000°E)
Time: 10:11:02
(UTC+00:00)

Cosmos 2237 Rocket - Pass Details

Date: 21 April 2021
Orbit: 836 x 849 km, 71.0° (Epoch: 06 May)

Event Time Altitude Azimuth Distance (km) Brightness Sun altitude
Rises 18:49:33 0° 336° (NNW) 3,405 6.2 -5.6°
Reaches altitude 10° 18:52:10 10° 344° (NNW) 2,465 5.3 -6.0°
Maximum altitude 18:57:29 41° 54° (NE) 1,204 2.8 -6.8°
Drops below altitude 10° 19:02:46 10° 124° (SE) 2,446 3.9 -7.6°
Enters shadow 19:03:00 - 125° (SE) 2,528 4.0 -7.7°
